[[{"header":{"parameterUnit":"m.s-1","parameterCategory":1,"la1":30.2991,"la2":30.254,"lo1":-89.0895,"lo2":-89.0444,"dy":0.0017,"dx":0.0017,"nx":28,"ny":28,"refTime":"2024-02-04T03:00:00:Z","depth":0,"parameterNumber":2,"parameterNumberName":"U-component_of_WINDS"},"data":[0,0,0,0,0,0,0,0,0,0,0,0,0,0,0,0,0,0,0,0,0,0,0,0,0,0,0,0,0,0,0,0,0,0,0,0,0,0,0,0,0,0,0,0,0,0,0,0,0,0,0,0,0,0,0,0,0,0,-11.4956,-11.4961,0,-11.5357,-11.5362,-11.5366,-11.5334,-11.5327,-11.5321,-11.5316,-11.5708,-11.5724,-11.574,0,0,0,0,0,0,0,0,0,0,0,0,0,-11.4144,-11.4159,-11.4956,-11.4961,-11.4966,-11.5356,-11.5362,-11.5367,-11.5335,-11.5327,-11.532,-11.5313,-11.5703,-11.5722,-11.5741,0,0,0,0,0,0,0,0,0,0,0,0,0,-11.4515,-11.4164,-11.4955,-11.4997,-11.5005,-11.5355,-11.5362,-11.5369,-11.5336,-11.5327,-11.5318,-11.531,-11.5697,-11.572,-11.5744,-11.6073,0,0,-11.5818,-11.5828,0,0,0,0,0,0,0,0,-11.4494,-11.4545,-11.4986,-11.4995,-11.5004,-11.5287,-11.5219,-11.5604,-11.5338,-11.521,-11.5316,-11.5305,-11.5574,-11.5608,-11.5702,-11.6091,-11.6108,-11.582,-11.5834,-11.5845,-11.5851,0,0,0,0,0,0,0,-11.4469,-11.4527,-11.5114,-11.4992,-11.5004,-11.499,-11.5033,-11.5292,-11.5437,-11.522,-11.5219,-11.5268,-11.5577,-11.5679,-11.5711,-11.6114,-11.5819,-11.584,-11.5855,-11.5865,-11.6787,-11.6797,0,0,0,0,0,0,-11.4436,-11.4506,-11.5101,-11.5126,-11.4723,-11.5012,-11.506,-11.5205,-11.5434,-11.5461,-11.5275,-11.5265,-11.5642,-11.5683,-11.5725,-11.6122,-11.5844,-11.5867,-11.5881,-11.6777,-11.6789,-11.68,0,0,0,0,0,0,-11.4418,-11.4489,-11.5085,-11.4816,-11.4891,-11.5036,-11.5198,-11.5217,-11.5319,-11.5476,-11.55,-11.5354,-11.5637,-11.5691,-11.5987,-11.6135,-11.5878,-11.59,-11.6765,-11.6781,-11.6795,-11.692,0,0,0,0,0,0,-11.4395,-11.4483,-11.4614,-11.482,-11.4906,-11.5347,-11.5208,-11.5232,-11.5363,-11.5353,-11.5556,-11.5581,-11.5634,-11.5951,-11.6011,-11.6163,-11.5919,-11.6753,-11.6772,-11.679,-11.6903,-11.6937,-11.6966,0,0,0,0,0,-11.4366,-11.463,-11.4621,-11.4693,-11.5074,-11.5355,-11.5404,-11.5465,-11.5375,-11.5505,-11.5605,-11.5574,-11.611,-11.5982,-11.6048,-11.621,-11.6743,-11.6767,-11.6789,-11.6888,-11.693,-11.6966,0,0,0,0,0,0,-11.4432,-11.4658,-11.465,-11.499,-11.5154,-11.5349,-11.5515,-11.5508,-11.5696,-11.5679,-11.5741,-11.5787,-11.6084,-11.6177,-11.603,-11.6538,-11.6414,-11.6451,-11.6467,-11.6508,-11.6539,-11.6508,-11.5939,0,0,0,0,0,-11.4487,-11.4703,-11.4886,-11.5168,-11.5252,-11.5369,-11.5494,-11.5528,-11.5698,-11.5765,-11.5887,-11.6049,-11.6253,-11.6386,-11.6583,-11.6917,-11.6957,-11.7061,-11.7092,-11.7118,-11.7148,-11.7327,-11.7373,-11.6875,-11.6874,-11.6874,0,0,-11.46,-11.4751,-11.4882,-11.5185,-11.5316,-11.5532,-11.5428,-11.5661,-11.582,-11.5799,-11.6087,-11.6182,-11.6365,-11.6681,-11.6826,-11.6767,-11.7295,-11.7147,-11.7166,-11.7182,-11.7355,-11.7402,-11.7443,-11.689,-11.6887,-11.6885,0,0,-11.4918,-11.5056,-11.5304,-11.5439,-11.5642,-11.5718,-11.5778,-11.5975,-11.6039,-11.633,-11.6318,-11.6504,-11.6856,-11.6987,-11.7099,-11.7466,-11.7442,-11.7527,-11.7692,-11.7866,-11.7905,-11.794,-11.8066,-11.8111,-11.7557,-11.7558,-11.7558,0,-11.5031,-11.5363,-11.5431,-11.5668,-11.5798,-11.5796,-11.6043,-11.6169,-11.6422,-11.651,-11.6443,-11.6883,-11.7007,-11.7351,-11.744,-11.7533,-11.7597,-11.7503,-11.7895,-11.7931,-11.7964,-11.8085,-11.8133,-11.7567,-11.7566,-11.7565,-11.7564,0,-11.5491,-11.5721,-11.5896,-11.6147,-11.6298,-11.6538,-11.6636,-11.678,-11.68,-11.6881,-11.7174,-11.7323,-11.7549,-11.7633,-11.7653,-11.798,-11.7937,-11.7882,-11.7757,-11.8019,-11.8133,-11.8181,-11.7579,-11.7576,-11.7573,-11.7571,0,0,-11.5858,-11.6146,-11.6208,-11.6321,-11.6544,-11.672,-11.6958,-11.7184,-11.7303,-11.7478,-11.7675,-11.7973,-11.7924,-11.8051,-11.8085,-11.8239,-11.8513,-11.8164,-11.8169,-11.822,-11.8876,-11.8913,-11.8966,-11.8501,-11.851,-11.8518,-11.8859,0,-11.6194,-11.6624,-11.6691,-11.7066,-11.7275,-11.7275,-11.7482,-11.7637,-11.772,-11.7904,-11.7992,-11.8202,-11.8123,-11.8199,-11.8351,-11.8448,-11.8645,-11.8425,-11.8678,-11.8686,-11.8629,-11.9027,-11.9068,-11.9383,-11.8905,-11.8913,-11.8918,0,-11.6644,-11.6837,-11.7234,-11.7427,-11.7517,-11.7703,-11.7914,-11.8094,-11.8267,-11.8316,-11.8459,-11.8475,-11.8715,-11.8583,-11.8911,-11.8759,-11.8867,-11.893,-11.8943,-11.8966,-11.8815,-11.9056,-11.9486,-11.9531,-11.899,-11.8984,-11.8979,0,-11.6867,-11.7225,-11.7509,-11.7605,-11.7839,-11.7968,-11.807,-11.8237,-11.8367,-11.855,-11.8634,-11.8841,-11.8952,-11.9108,-11.9177,-11.9075,-11.9499,-11.9373,-11.954,-11.9538,-11.9626,-11.9619,-12.0075,-11.9702,-11.9702,-11.9701,-11.97,0,-11.7233,-11.7475,-11.7612,-11.7785,-11.8054,-11.8127,-11.8389,-11.8485,-11.8633,-11.8821,-11.8832,-11.9006,-11.9088,-11.9273,-11.9327,-11.9588,-11.9638,-11.9679,-11.969,-11.9677,-11.9671,-11.9745,-11.9723,-11.9713,-11.9711,-11.9708,-11.9706,0,-11.7526,-11.7629,-11.7937,-11.8134,-11.8189,-11.8378,-11.8543,-11.8708,-11.879,-11.9027,-11.9086,-11.9212,-11.9431,-11.9516,-11.9781,-11.9817,-12.0116,-12.0111,-12.0059,-12.0061,-12.0221,-12.0203,-12.0737,-12.0809,-12.0393,-12.0397,-12.04,0,-11.7751,-11.7938,-11.8157,-11.8286,-11.8394,-11.8602,-11.8737,-11.8815,-11.8953,-11.9166,-11.9303,-11.9523,-11.9702,-12.0049,-12.016,-12.0362,-12.0359,-12.0533,-12.0389,-12.0368,-12.0356,-12.0343,-12.0359,-12.0557,-12.0561,-12.0565,-12.0568,0,-11.8138,-11.818,-11.8378,-11.8594,-11.8756,-11.8928,-11.9095,-11.9198,-11.93,-11.9454,-11.9681,-11.982,-12.0093,-12.0308,-12.0516,-12.0613,-12.0606,-12.0613,-12.0661,-12.0647,-12.0608,-12.0627,-12.0127,-12.0599,-12.0596,-12.0594,-12.0592,-12.0591,-11.8401,-11.8566,-11.8746,-11.8965,-11.91,-11.9256,-11.942,-11.9525,-11.9718,-11.995,-11.9982,-12.0223,-12.0388,-12.0668,-12.0774,-12.0959,-12.0912,-12.0983,-12.1001,-12.1016,-12.1025,-12.0582,-12.0997,-12.0996,-12.0996,-12.0995,-12.0995,0,-11.8785,-11.8902,-11.9103,-11.9339,-11.951,-11.9496,-11.9679,-11.982,-12.0035,-12.0193,-12.0371,-12.0629,-12.0837,-12.0966,-12.1174,-12.1297,-12.1298,-12.1348,-12.1338,-12.1359,-12.1057,-12.0993,-12.1344,-12.1344,-12.1344,-12.1344,-12.1343,-12.1343,-11.9004,-11.9282,-11.9345,-11.9687,-11.98,-12.0042,-12.0147,-12.0288,-12.0415,-12.0705,-12.0881,-12.0966,-12.111,-12.1329,-12.1517,-12.1549,-12.1622,-12.1676,-12.1703,-12.1417,-12.1381,-12.1346,-12.1286,-12.1693,-12.1693,-12.1989,-12.1992,-12.1994]},{"header":{"parameterUnit":"m.s-1","parameterCategory":1,"la1":30.2991,"la2":30.254,"lo1":-89.0895,"lo2":-89.0444,"dy":0.0017,"dx":0.0017,"nx":28,"ny":28,"refTime":"2024-02-04T03:00:00:Z","depth":0,"parameterNumber":3,"parameterNumberName":"V-component_of_WINDS"},"data":[0,0,0,0,0,0,0,0,0,0,0,0,0,0,0,0,0,0,0,0,0,0,0,0,0,0,0,0,0,0,0,0,0,0,0,0,0,0,0,0,0,0,0,0,0,0,0,0,0,0,0,0,0,0,0,0,0,0,4.4291,4.4294,0,4.4569,4.4572,4.4575,4.4523,4.4518,4.4513,4.4508,4.4779,4.4791,4.4803,0,0,0,0,0,0,0,0,0,0,0,0,0,4.3701,4.3712,4.4291,4.4295,4.4298,4.4568,4.4572,4.4576,4.4524,4.4518,4.4512,4.4506,4.4776,4.479,4.4804,0,0,0,0,0,0,0,0,0,0,0,0,0,4.3966,4.3716,4.429,4.4305,4.4309,4.4568,4.4572,4.4577,4.4525,4.4517,4.451,4.4503,4.4771,4.4788,4.4806,4.5064,0,0,4.486,4.4868,0,0,0,0,0,0,0,0,4.3951,4.3987,4.4299,4.4304,4.4309,4.4504,4.4464,4.474,4.4527,4.4442,4.4508,4.4499,4.4693,4.4717,4.4785,4.5076,4.5088,4.4861,4.4872,4.488,4.4885,0,0,0,0,0,0,0,4.3932,4.3975,4.44,4.4304,4.431,4.4293,4.4322,4.4516,4.4605,4.4449,4.4446,4.448,4.4694,4.4768,4.479,4.5092,4.4861,4.4877,4.4888,4.4895,4.5608,4.5616,0,0,0,0,0,0,4.3911,4.396,4.4392,4.4409,4.4109,4.4309,4.4342,4.4449,4.4603,4.462,4.4486,4.4477,4.4741,4.477,4.48,4.5113,4.488,4.4896,4.4907,4.5599,4.5609,4.5618,0,0,0,0,0,0,4.3899,4.395,4.438,4.4184,4.4237,4.4328,4.4447,4.4458,4.4532,4.4632,4.4646,4.4546,4.4736,4.4775,4.4999,4.5122,4.4904,4.4921,4.559,4.5603,4.5614,4.5741,0,0,0,0,0,0,4.3882,4.3946,4.4049,4.4187,4.4248,4.458,4.4455,4.4469,4.4564,4.4554,4.4691,4.4707,4.4733,4.4973,4.5017,4.5142,4.4934,4.5579,4.5595,4.561,4.5726,4.5756,4.5782,0,0,0,0,0,4.3861,4.4071,4.4054,4.4107,4.4379,4.4587,4.4622,4.4652,4.4574,4.4676,4.474,4.4702,4.51,4.4996,4.5045,4.5178,4.5572,4.5591,4.5609,4.5714,4.5751,4.5781,0,0,0,0,0,0,4.394,4.4089,4.4073,4.4334,4.4449,4.4578,4.4708,4.469,4.4826,4.4811,4.4837,4.4869,4.5097,4.5159,4.504,4.5435,4.5324,4.5354,4.5387,4.5423,4.545,4.5432,4.4949,0,0,0,0,0,4.3989,4.4151,4.4269,4.4488,4.4547,4.4618,4.4709,4.4723,4.4841,4.4888,4.4968,4.5081,4.5231,4.5329,4.5473,4.5733,4.5762,4.5848,4.5876,4.5898,4.5924,4.6066,4.6106,4.568,4.568,4.5679,0,0,4.4089,4.4191,4.429,4.4506,4.4597,4.476,4.4659,4.4835,4.4955,4.4913,4.5133,4.5194,4.5321,4.5565,4.5676,4.5624,4.6047,4.5922,4.5939,4.5953,4.6089,4.6129,4.6165,4.5692,4.569,4.5688,0,0,4.4357,4.445,4.4644,4.4737,4.4878,4.4923,4.4969,4.5102,4.5143,4.5363,4.5336,4.5475,4.5734,4.5826,4.5906,4.6207,4.6177,4.6251,4.6398,4.6536,4.657,4.66,4.6708,4.6746,4.6276,4.6277,4.6277,0,4.4464,4.4714,4.4744,4.4925,4.502,4.4993,4.5187,4.5274,4.5452,4.5516,4.5454,4.5779,4.5862,4.6127,4.6201,4.6266,4.6318,4.6238,4.6563,4.6593,4.6622,4.6725,4.6766,4.6285,4.6284,4.6283,4.6282,0,4.4838,4.501,4.5149,4.5327,4.5437,4.5622,4.5677,4.5783,4.5785,4.5836,4.6059,4.6158,4.6321,4.6384,4.6386,4.6649,4.6613,4.6557,4.6447,4.667,4.6768,4.6808,4.6297,4.6294,4.6291,4.6289,0,0,4.5167,4.536,4.541,4.5491,4.5643,4.5774,4.5956,4.6121,4.6212,4.6333,4.6486,4.6704,4.6654,4.6745,4.6756,4.6877,4.711,4.6807,4.681,4.6862,4.7406,4.745,4.7496,4.709,4.7098,4.7104,4.7396,0,4.5451,4.5781,4.5812,4.6105,4.6264,4.6239,4.6397,4.6504,4.6555,4.6693,4.6746,4.6902,4.6823,4.6878,4.6996,4.7057,4.722,4.7036,4.723,4.7237,4.7204,4.7547,4.7594,4.7866,4.7435,4.7441,4.7446,0,4.5828,4.5967,4.6278,4.6407,4.6475,4.6618,4.6771,4.6904,4.7023,4.7051,4.7153,4.7148,4.7331,4.7211,4.7463,4.7337,4.7417,4.7458,4.7469,4.7491,4.7358,4.7581,4.7953,4.7996,4.7506,4.7501,4.7497,0,4.604,4.6303,4.6524,4.6593,4.6749,4.685,4.6918,4.7031,4.7127,4.7258,4.732,4.7468,4.755,4.7663,4.7696,4.7606,4.7947,4.783,4.7974,4.7974,4.8051,4.8046,4.8445,4.8097,4.8096,4.8095,4.8094,0,4.6357,4.6548,4.6622,4.6758,4.697,4.7001,4.7208,4.727,4.737,4.7514,4.7497,4.7632,4.7666,4.7806,4.7831,4.8036,4.8072,4.8098,4.8103,4.8103,4.81,4.8158,4.8141,4.8106,4.8104,4.8101,4.81,0,4.6632,4.6689,4.6928,4.7056,4.7093,4.7244,4.7351,4.748,4.7526,4.7709,4.7753,4.7826,4.7989,4.8033,4.8226,4.8243,4.8485,4.8471,4.8448,4.8448,4.8591,4.8578,4.9044,4.9107,4.8714,4.8718,4.8721,0,4.6832,4.698,4.7125,4.7223,4.7298,4.7455,4.7554,4.7587,4.7691,4.7837,4.7948,4.8109,4.8242,4.8502,4.8569,4.8716,4.8707,4.886,4.8729,4.8724,4.8713,4.8706,4.8721,4.8886,4.889,4.8894,4.8896,0,4.7183,4.7204,4.7351,4.7508,4.7629,4.7752,4.787,4.795,4.7999,4.8115,4.8285,4.8387,4.8586,4.8747,4.8895,4.896,4.8937,4.8936,4.8978,4.8981,4.8963,4.8977,4.8519,4.8927,4.8924,4.8921,4.892,4.8919,4.7429,4.7559,4.7683,4.7847,4.794,4.8051,4.8179,4.8243,4.8386,4.8556,4.8563,4.8748,4.8859,4.9058,4.913,4.9271,4.9225,4.9285,4.93,4.9316,4.933,4.8937,4.9297,4.9296,4.9296,4.9295,4.9294,0,4.7781,4.7859,4.801,4.8179,4.8306,4.8276,4.8404,4.8512,4.8676,4.8785,4.8916,4.9109,4.9264,4.9343,4.9495,4.9593,4.9586,4.9632,4.9627,4.9643,4.9361,4.9311,4.9635,4.9635,4.9635,4.9635,4.9635,4.9635,4.798,4.82,4.8235,4.8499,4.8574,4.8759,4.8835,4.8935,4.9023,4.9242,4.9372,4.9424,4.9519,4.9679,4.9818,4.9836,4.9894,4.9947,4.996,4.9697,4.9662,4.9629,4.9583,4.9959,4.9959,5.0231,5.0233,5.0235]}]]